RH
52 49 47 42 34 25 22 24 28 37 56 77 92 99 101 101 99 99 100 97 96 99 100 99 101 100 97 88 77 72 71 71 73 72 73 72 66 64 67 64 59 55 50 48 51 55 60 64 61 53 49 43 32 22 11 6 9 9 10 21 38 52 57
57 55 53 52 45 35 27 23 29 39 46 56 73 85 92 98 98 97 98 95 94 99 100 99 101 101 98 90 80 74 73 74 75 73 73 73 67 68 71 68 61 57 50 44 49 59 61 63 64 55 48 43 32 19 10 7 11 11 14 28 43 53 58
56 56 57 58 55 48 37 29 36 55 64 61 67 78 86 95 98 98 98 97 95 99 100 99 101 101 99 93 83 76 74 75 75 74 74 72 69 71 73 68 62 58 54 45 46 60 63 60 63 57 48 43 32 17 9 9 13 16 22 36 47 55 60
54 53 56 59 60 56 50 40 36 54 74 80 85 90 84 88 100 103 100 100 100 99 99 100 100 100 101 98 89 80 77 78 78 76 76 72 70 73 71 66 62 61 59 48 46 60 65 60 60 55 48 42 30 16 8 11 17 22 31 42 51 58 63
55 51 50 56 61 59 57 53 42 43 56 69 88 98 84 80 96 106 102 99 100 100 99 100 100 100 102 99 92 86 84 84 84 82 78 72 70 73 70 64 63 66 64 54 53 64 66 61 58 53 48 41 28 15 8 12 22 27 36 47 56 64 68
55 52 48 51 58 59 58 59 54 49 47 49 60 76 84 92 100 104 104 99 98 101 100 99 100 101 103 98 92 92 92 92 92 87 79 72 70 73 68 62 66 70 66 60 65 70 65 62 59 52 47 39 26 14 8 14 25 31 42 54 61 68 75
57 53 48 47 51 56 57 56 50 42 40 43 46 52 70 93 104 104 102 98 97 99 99 100 100 100 101 98 97 99 98 99 99 89 79 74 69 67 65 64 69 72 68 68 77 77 67 63 60 52 47 38 24 14 8 13 25 34 48 62 66 69 75
66 55 48 45 45 47 50 49 42 30 22 24 32 40 50 70 92 103 103 100 99 98 99 101 99 100 101 97 98 99 98 104 102 86 79 75 64 59 62 67 72 74 72 77 83 79 70 64 59 51 46 36 22 13 9 14 26 35 45 57 62 65 69
78 68 57 50 46 44 42 41 38 33 26 20 18 23 34 50 75 98 103 101 101 100 99 99 99 102 99 89 87 93 98 104 96 82 80 70 55 57 65 70 77 77 75 81 85 80 71 64 58 51 44 34 22 12 8 14 27 37 45 51 55 61 66
81 78 69 61 56 50 44 40 36 30 29 29 19 14 24 41 62 90 104 100 101 102 98 99 102 95 84 80 82 88 94 93 85 85 83 59 43 57 70 74 78 75 73 80 82 78 72 64 56 49 41 32 21 12 8 14 27 39 46 50 53 59 68
77 75 72 66 60 56 49 42 36 29 24 28 27 19 27 42 52 76 102 103 99 102 99 100 100 84 76 82 82 82 85 81 82 94 82 46 39 59 70 71 70 65 69 78 77 73 69 63 56 48 40 31 20 11 9 14 28 41 46 50 53 56 66
79 73 70 65 59 56 52 42 35 30 20 21 29 27 36 53 52 63 96 105 98 101 102 100 93 81 79 84 78 77 80 78 91 101 71 38 47 68 73 73 67 61 66 74 72 68 66 62 57 48 39 31 19 11 10 14 30 45 49 50 54 58 65
81 73 66 60 54 51 51 43 34 30 22 22 35 41 51 64 55 56 88 104 98 101 102 92 82 77 82 84 76 75 79 87 101 92 53 38 59 76 80 80 71 66 72 75 69 65 64 62 56 47 40 30 18 11 11 15 32 48 53 54 57 61 67
81 71 62 57 58 63 68 62 43 30 28 38 59 73 75 73 59 54 75 96 102 103 95 81 73 78 85 80 69 72 86 97 93 67 42 51 72 83 86 82 73 73 81 80 70 64 63 62 54 46 40 29 17 11 11 18 35 51 57 56 56 61 68
85 73 72 77 81 81 82 76 52 32 36 58 83 97 87 70 57 53 65 90 105 98 83 73 72 75 76 65 62 78 91 81 60 43 46 67 84 92 92 81 74 81 87 82 73 68 66 61 52 47 41 29 17 12 14 26 44 56 56 52 54 64 72
96 86 87 94 100 96 88 82 66 50 55 71 87 96 84 61 51 55 68 91 100 85 71 69 66 65 65 63 70 82 72 48 36 41 56 76 92 99 93 82 81 89 89 80 73 71 68 60 51 47 41 28 16 12 17 33 51 58 54 52 58 69 73
105 100 94 92 98 102 96 91 88 82 78 77 76 82 82 62 46 55 71 82 85 76 65 60 62 70 76 76 77 69 46 32 37 47 61 82 98 100 94 90 94 97 91 81 75 72 68 59 51 48 41 28 16 12 20 36 52 59 58 60 65 71 72
102 100 99 98 100 101 94 91 99 98 91 83 69 66 79 71 50 53 66 63 66 76 71 63 68 76 72 63 56 44 32 34 42 49 66 86 95 96 96 98 101 100 92 84 79 74 66 57 51 48 41 29 16 13 24 41 56 65 67 66 70 73 72
101 98 100 101 101 103 98 95 102 101 95 92 72 56 74 80 55 50 58 46 44 63 72 68 63 54 42 37 35 32 34 41 46 55 73 85 87 92 98 101 103 98 90 88 83 73 65 57 51 48 42 29 16 14 28 47 65 76 72 66 74 79 74
103 101 102 101 100 103 101 99 104 99 88 85 71 59 76 83 59 50 55 43 33 40 47 46 39 31 29 31 31 34 39 44 49 59 75 84 85 90 98 104 103 93 87 88 83 71 64 57 52 51 43 28 16 16 29 52 75 83 72 64 75 82 78
100 100 101 101 101 101 100 102 104 90 72 71 71 70 82 81 59 50 53 46 37 34 32 31 30 29 31 32 34 40 44 48 54 62 75 86 89 91 99 103 97 88 88 89 81 70 62 56 54 54 43 27 17 17 30 58 82 84 73 69 76 79 81
100 102 101 101 101 101 101 101 95 80 70 74 78 79 83 74 56 51 53 48 42 36 30 29 30 31 33 36 42 46 47 50 57 62 74 88 92 94 99 97 89 86 90 88 79 68 61 57 57 54 42 27 18 17 32 63 88 89 78 74 76 76 82
100 101 101 102 101 101 101 96 85 78 80 87 88 86 82 69 54 50 53 50 46 39 32 30 33 37 41 44 47 48 48 51 55 62 77 90 93 95 97 91 85 87 89 85 76 66 61 60 60 54 41 27 17 17 35 67 95 98 83 74 76 76 81
103 101 101 101 100 100 101 93 81 78 84 92 92 87 80 68 56 51 50 48 46 42 37 36 39 44 47 48 48 49 48 48 53 65 81 91 94 95 93 88 86 88 88 82 73 65 62 62 60 52 40 27 17 17 36 70 99 102 81 69 74 77 80
99 100 101 101 101 101 101 96 86 82 87 94 93 85 77 68 59 53 50 45 42 43 43 42 43 46 48 49 49 48 46 46 53 69 84 91 93 93 91 89 89 89 87 80 70 65 64 63 60 52 39 27 17 17 36 71 100 102 84 72 75 76 76
93 101 103 101 101 101 100 99 94 89 90 92 89 82 75 68 61 55 51 45 41 41 43 45 45 47 49 50 49 47 45 46 57 74 87 93 93 92 91 91 90 89 85 78 69 65 64 62 60 52 37 25 18 16 34 70 99 103 93 84 81 76 73
81 90 93 93 95 94 93 95 95 93 92 90 86 82 77 69 64 60 53 47 42 39 40 43 45 48 50 49 48 45 42 47 63 80 91 93 91 93 95 93 91 89 84 75 68 65 62 60 58 50 36 25 18 14 31 68 96 103 100 93 87 79 73
63 74 79 82 87 85 80 81 83 85 89 90 87 85 79 72 69 66 58 49 43 39 39 40 42 45 46 45 44 43 43 54 73 87 94 93 92 96 97 93 92 90 82 74 68 62 57 57 57 48 33 25 19 14 27 63 91 102 101 94 87 80 73
53 67 71 71 76 78 75 73 73 77 88 95 91 85 80 73 68 65 59 51 45 42 40 37 35 38 39 38 39 43 50 66 84 94 95 94 94 98 99 95 94 89 79 72 67 59 55 57 56 45 32 25 21 14 23 55 86 100 102 95 89 84 74
54 60 58 53 58 69 75 77 79 85 93 96 89 84 83 76 66 61 58 53 49 46 41 35 32 32 33 34 38 47 60 79 93 96 94 94 97 100 99 96 94 87 77 72 66 58 55 58 54 43 32 26 22 16 20 47 80 99 102 98 95 91 78
48 48 45 42 47 59 69 74 78 81 80 75 70 72 76 71 62 58 57 55 52 47 40 32 28 28 30 35 42 54 73 91 97 95 93 96 99 100 99 97 94 85 76 73 67 58 56 58 53 43 34 27 23 17 17 37 71 95 101 100 100 96 83
43 40 39 39 43 51 58 61 63 64 62 58 56 58 58 55 52 53 54 54 53 47 37 30 26 26 32 39 48 66 88 100 97 93 94 98 100 100 99 97 92 82 75 74 68 59 57 58 52 43 36 28 23 20 17 27 58 88 100 100 100 99 91
57 50 46 45 47 50 52 52 51 50 49 50 49 48 45 43 43 46 50 52 51 45 35 27 25 29 35 43 59 82 100 102 95 93 97 100 100 100 99 96 88 80 77 77 70 61 58 58 51 43 39 31 24 22 19 21 44 77 97 101 100 100 98
66 60 55 54 54 51 48 47 45 40 39 42 45 43 40 37 37 42 47 49 48 42 33 26 26 32 40 52 75 98 105 98 93 96 100 100 100 100 98 93 85 79 79 80 72 62 58 57 51 45 41 35 27 24 21 19 30 59 86 99 101 100 100
55 56 55 54 54 49 41 38 38 36 36 41 45 43 36 33 35 41 45 45 44 39 32 29 31 36 47 68 93 106 102 94 95 99 100 99 100 100 96 90 83 81 83 82 72 61 58 57 52 46 43 37 31 28 26 21 22 40 69 92 101 99 99
51 54 53 54 60 60 48 37 34 34 34 37 39 37 33 33 37 40 40 40 40 36 34 36 39 45 63 88 105 104 97 95 99 100 99 100 100 98 94 89 85 83 85 82 71 60 57 57 53 46 42 37 32 30 30 26 20 26 49 80 99 101 99
Wind_Speed
49 46 44 44 43 44 45 47 48 49 50 50 50 49 49 48 47 48 49 49 48 50 52 53 51 47 45 44 43 43 44 44 46 47 49 52 53 53 54 53 53 54 53 53 55 58 62 65 66 66 67 68 68 67 62 55 48 42 36 33 33 34 36
51 48 45 43 43 43 44 46 47 48 48 48 49 50 51 51 50 49 49 48 47 48 52 52 50 47 46 44 44 45 45 46 47 48 50 53 54 54 53 53 54 55 55 53 54 58 62 65 67 67 67 68 69 66 59 50 44 38 32 30 31 33 35
53 51 47 44 43 43 43 45 47 47 47 47 47 48 48 50 51 51 49 47 46 49 52 52 50 48 46 45 45 46 46 47 48 49 51 53 55 54 52 53 55 55 56 54 54 58 62 64 66 67 67 68 68 65 56 46 39 34 29 28 30 33 36
53 52 49 45 43 43 43 44 46 47 47 48 49 49 48 47 48 50 48 45 46 50 52 52 50 48 47 46 47 46 47 48 48 49 52 54 55 54 53 53 55 55 55 55 55 57 62 64 65 66 66 67 67 63 53 43 35 30 27 28 31 34 36
52 52 49 45 43 42 42 43 44 46 48 49 51 52 51 48 47 48 47 45 46 49 52 52 51 49 48 47 47 47 48 49 49 50 52 54 55 54 53 53 54 54 55 56 56 58 61 64 65 65 66 67 66 60 50 40 33 28 27 29 32 35 36
53 52 50 46 43 42 42 43 43 44 46 49 52 53 52 50 48 48 47 46 46 48 50 52 52 50 49 47 46 47 50 50 50 51 53 54 55 54 52 52 53 54 54 56 57 59 61 63 64 65 65 66 65 58 48 38 31 29 29 30 32 33 34
53 52 49 47 44 42 42 42 42 42 44 47 51 54 55 53 50 49 48 47 46 46 48 50 51 51 50 48 47 49 51 51 51 52 53 55 55 52 51 52 53 53 54 55 57 60 61 62 63 64 64 64 63 57 47 37 30 27 29 31 32 32 33
50 50 48 46 44 43 43 43 42 43 44 47 50 54 57 57 54 51 49 48 46 44 45 48 50 51 50 48 48 50 52 52 51 52 53 54 53 51 51 51 51 52 52 54 56 59 60 61 62 63 64 64 61 55 46 38 32 27 27 30 31 31 33
49 49 48 48 47 46 45 44 44 46 48 51 53 56 60 60 56 53 50 48 46 43 43 45 47 48 47 46 48 51 53 52 51 52 53 53 52 51 50 50 50 50 51 53 55 57 59 60 61 61 63 63 60 54 45 38 33 30 28 29 29 30 35
51 51 52 52 51 51 49 47 48 50 51 54 56 57 60 61 59 55 51 49 46 43 41 43 44 44 44 45 48 50 51 50 50 52 53 52 51 49 49 48 48 49 50 51 54 55 56 58 59 59 62 62 59 54 45 37 33 31 30 31 30 29 34
53 53 54 54 54 54 53 52 51 51 52 55 56 56 58 61 60 56 51 49 46 42 40 41 42 42 43 45 47 48 48 48 49 52 52 51 50 49 48 48 48 49 49 50 53 54 55 57 57 58 60 61 58 53 45 37 34 33 32 33 33 31 34
52 52 53 55 54 54 54 52 50 52 55 57 57 57 59 61 60 56 52 49 45 41 40 40 41 42 44 45 46 47 47 48 50 51 51 49 48 48 47 47 48 49 49 50 53 54 55 56 57 56 58 59 57 52 44 36 33 34 34 34 35 35 37
52 52 52 53 54 54 54 52 49 50 55 56 57 59 59 59 59 56 52 49 46 41 39 39 41 44 46 47 47 47 47 48 50 50 49 47 47 46 46 46 47 48 49 51 53 53 54 56 57 57 56 57 56 52 43 35 32 34 35 35 36 38 40
51 51 51 52 53 53 53 52 50 49 51 55 56 56 56 56 56 54 51 49 45 40 37 39 43 46 49 49 48 47 46 47 48 48 47 46 45 44 44 45 46 47 49 51 53 54 54 55 57 58 56 55 56 52 43 35 31 34 36 35 37 40 42
50 50 51 51 50 50 50 50 50 49 51 54 52 50 51 52 51 49 47 46 44 40 39 42 45 47 49 48 46 45 44 45 46 46 44 43 43 42 42 44 45 47 49 51 52 53 53 54 56 57 55 54 54 50 42 34 32 35 36 35 37 40 44
49 49 50 50 48 48 49 49 49 50 51 51 48 45 45 46 46 44 43 44 45 44 44 44 46 47 47 46 45 45 44 43 44 43 42 41 40 40 41 43 45 47 49 51 51 52 52 53 54 55 53 53 53 48 39 33 33 36 37 37 39 41 45
48 48 48 48 47 46 47 48 48 49 49 48 46 44 41 41 42 41 42 44 46 46 47 46 45 46 46 46 46 45 43 42 42 40 39 38 38 38 40 42 44 47 49 50 51 51 52 53 54 53 52 51 51 46 37 33 33 37 38 39 42 43 46
45 47 47 46 46 45 45 46 46 46 45 43 44 44 41 39 38 39 41 44 45 46 47 46 44 45 46 46 44 43 42 41 39 38 37 36 35 36 38 41 43 46 48 49 50 50 51 53 53 52 50 50 50 44 36 33 35 37 38 40 44 46 47
39 41 42 42 42 42 42 42 42 43 42 41 42 44 41 38 36 37 40 42 43 45 47 46 44 43 43 42 41 41 40 38 36 35 35 35 34 35 37 40 42 44 46 47 48 49 51 52 52 50 49 49 48 42 35 33 36 38 39 41 44 48 50
32 33 35 35 35 36 36 38 39 41 42 41 41 42 40 37 35 35 36 38 39 41 42 41 41 40 39 39 39 39 37 35 34 34 33 34 34 34 35 39 41 43 44 45 46 48 50 51 50 49 48 48 48 41 34 33 36 38 40 42 44 47 50
29 29 30 30 30 31 32 34 35 38 40 40 39 39 37 34 33 33 34 35 36 36 36 36 36 36 36 37 37 36 35 33 32 32 32 32 32 33 35 38 40 42 42 43 45 47 49 50 49 48 48 48 47 40 32 32 36 38 40 43 44 46 49
27 27 28 28 29 29 29 30 32 34 36 36 35 34 32 30 30 30 31 32 32 32 32 32 33 33 34 34 33 33 32 31 31 32 31 31 30 32 34 37 39 40 41 43 45 47 48 48 47 47 47 47 46 39 31 30 34 37 40 43 44 45 48
25 26 26 27 27 27 27 29 30 31 31 31 30 29 28 26 26 27 28 29 29 29 30 30 30 31 31 31 31 31 30 30 30 31 30 29 29 31 34 37 38 39 41 42 44 46 47 46 45 44 45 46 45 38 30 28 32 36 39 41 43 44 47
24 25 25 24 25 25 26 28 29 28 28 28 27 25 24 24 24 24 25 26 27 28 29 29 29 29 29 29 29 29 29 29 30 30 28 28 29 31 34 36 37 39 40 42 43 45 46 45 43 43 43 44 43 36 28 27 30 34 37 39 40 42 46
24 24 24 23 23 24 25 27 27 26 27 27 26 23 22 22 22 22 23 24 25 27 28 29 29 29 28 28 28 28 29 29 29 28 27 27 28 30 33 35 37 38 39 40 42 44 44 43 41 41 41 42 41 34 26 25 29 32 36 38 38 40 44
24 24 24 24 24 24 25 26 26 26 26 26 26 24 21 21 21 20 21 22 23 25 27 29 30 30 29 28 28 29 29 29 28 26 25 26 27 30 32 34 36 37 38 39 41 43 42 40 39 39 39 39 39 32 24 22 26 30 34 37 37 39 42
23 24 24 24 24 25 25 25 25 24 24 24 25 24 23 21 21 21 21 22 23 24 26 28 29 29 29 28 28 28 29 28 26 24 24 24 26 29 31 33 35 36 36 38 41 41 40 38 36 36 37 38 37 31 22 19 23 27 31 34 35 37 40
23 23 23 23 24 26 26 26 25 22 21 21 23 23 22 21 21 21 22 23 23 23 24 25 26 27 27 26 26 27 27 26 24 23 23 24 26 29 31 32 34 35 35 38 40 39 38 36 34 34 35 36 37 31 21 17 20 24 28 32 33 34 37
23 22 22 23 24 26 27 27 26 24 22 22 22 22 20 19 19 20 22 23 22 22 23 24 24 24 24 25 26 26 25 23 22 21 21 23 26 28 30 31 32 33 35 37 39 38 37 35 33 33 33 34 35 31 22 16 18 22 25 29 31 32 35
23 22 22 23 25 26 27 28 27 26 25 25 24 23 22 20 19 19 21 22 22 22 22 22 22 23 24 24 25 24 22 21 20 20 20 23 25 27 29 30 31 32 34 37 38 37 35 33 32 32 32 32 34 31 22 15 15 19 22 26 29 30 32
23 24 24 25 26 27 27 27 27 27 26 25 24 23 22 21 20 20 21 22 22 22 21 21 22 22 23 24 23 21 20 19 19 19 20 22 25 26 28 29 30 31 34 36 37 35 33 31 30 30 31 31 32 31 23 15 13 16 19 22 26 28 30
23 24 25 26 27 27 28 28 28 27 26 25 24 23 22 21 20 20 21 22 22 21 20 21 22 23 23 22 20 18 18 18 17 18 20 22 24 26 27 28 29 31 33 35 36 34 32 30 29 29 29 30 30 31 25 16 12 13 16 18 22 25 27
17 21 23 25 27 27 28 28 29 29 28 27 25 25 23 22 21 21 22 22 21 20 20 22 23 23 22 20 18 16 17 16 16 18 20 22 23 25 27 27 28 30 33 34 34 33 30 29 27 27 28 28 29 30 27 18 12 11 13 15 18 21 23
11 15 18 21 24 26 27 28 28 29 30 29 27 26 24 23 22 22 23 22 21 20 21 22 23 22 20 17 16 15 15 15 16 18 19 21 23 24 25 26 28 30 32 33 33 31 29 27 27 26 26 27 28 29 28 22 13 10 12 13 13 16 19
10 12 14 16 19 23 26 28 30 30 30 29 27 25 23 23 23 23 22 21 20 20 22 22 22 20 17 15 14 14 14 14 16 17 19 20 22 23 24 25 27 29 31 31 31 30 28 26 25 25 24 25 26 27 28 26 18 11 10 11 11 12 14
10 12 14 15 17 19 21 23 25 27 27 25 24 23 23 23 23 22 20 20 20 22 22 22 20 17 15 13 13 13 13 14 15 17 18 20 21 22 23 25 26 28 29 30 30 28 26 25 24 23 23 23 24 24 26 27 22 14 9 9 10 9 10
Wind_Direction
270 269 269 270 270 270 270 270 270 269 267 265 263 262 262 262 264 267 269 269 271 273 273 272 272 273 278 283 286 289 291 292 295 298 300 301 301 303 304 306 309 311 313 315 316 316 317 320 322 323 322 322 323 323 320 316 308 299 288 278 276 281 288
270 267 267 268 269 269 269 269 269 269 269 268 267 266 265 263 263 264 267 269 271 273 273 271 271 274 278 283 286 289 290 292 294 297 299 300 301 302 304 307 309 311 312 315 316 316 318 321 323 323 323 323 324 324 321 316 307 297 286 277 278 284 289
268 266 265 265 266 267 268 268 268 268 269 270 270 270 268 266 264 263 264 267 270 272 273 271 271 274 277 282 286 288 289 291 294 297 299 299 300 301 304 307 309 311 312 314 315 316 318 321 323 323 323 324 325 325 322 316 305 295 286 280 282 288 292
265 263 262 262 263 265 267 267 268 269 269 271 272 273 271 269 265 261 261 265 268 270 271 270 270 272 276 281 285 286 288 290 293 296 298 298 299 301 304 307 308 310 312 314 315 317 319 321 322 323 323 324 325 325 322 315 305 294 287 284 287 291 293
262 261 260 259 260 262 265 267 269 269 271 272 274 275 273 270 265 260 259 263 267 268 269 269 269 271 275 280 283 285 286 289 292 295 297 297 298 300 304 306 308 310 312 313 315 317 319 321 323 324 324 324 325 325 321 314 303 294 287 286 290 293 294
261 259 258 256 257 260 261 264 268 270 273 274 276 276 274 271 267 262 260 261 265 268 269 269 269 272 276 279 282 283 285 288 291 294 296 296 297 301 304 306 308 310 312 314 316 318 319 322 323 324 324 324 324 325 321 312 301 294 291 291 294 295 292
257 257 255 255 255 256 257 260 265 270 274 276 278 277 274 271 268 265 262 261 264 267 270 270 269 271 274 277 279 281 283 286 289 292 294 295 297 301 303 305 308 310 312 315 316 318 320 322 323 323 325 324 324 324 321 311 299 292 291 293 297 296 290
257 255 254 254 255 255 256 259 263 271 277 279 280 279 276 273 268 265 262 262 263 265 269 271 269 269 272 274 275 278 281 284 287 291 294 296 298 301 303 305 308 311 313 315 316 318 320 322 323 323 324 324 323 324 320 309 298 290 286 288 294 294 289
258 257 257 258 258 259 260 262 266 273 280 284 284 280 276 273 269 264 262 261 260 261 266 270 270 269 271 272 273 275 279 283 286 290 294 296 298 301 303 305 308 311 313 314 315 318 321 323 324 323 324 323 323 323 319 308 298 293 288 287 292 294 292
256 258 260 261 263 264 264 267 272 276 279 283 284 278 272 271 268 264 262 261 260 261 266 270 270 269 269 270 272 275 279 284 287 291 295 297 298 300 302 305 308 310 313 314 316 319 321 323 324 323 323 323 323 323 319 307 296 292 290 290 293 296 295
254 256 258 260 262 263 264 268 273 276 279 281 279 272 267 267 266 263 261 262 260 262 268 270 267 268 269 270 273 277 282 286 288 291 295 296 297 299 301 305 308 311 313 314 316 320 322 323 324 324 323 322 323 322 318 307 295 293 292 291 295 299 298
251 253 255 258 260 261 264 268 272 276 280 280 275 267 263 263 264 261 261 261 260 264 273 272 266 267 270 271 275 280 284 287 288 292 294 295 297 299 302 307 310 312 314 315 317 321 323 323 324 324 323 322 323 322 317 306 296 294 295 295 299 303 302
248 251 253 256 259 260 262 265 269 275 279 276 270 265 262 261 261 260 260 261 260 267 274 270 264 266 269 271 276 282 285 287 289 291 293 294 297 299 303 309 311 313 315 316 318 322 324 324 324 324 324 322 322 322 316 305 296 296 298 300 303 305 305
246 248 251 254 257 258 258 260 265 272 272 269 267 266 263 260 260 260 259 259 259 264 269 264 262 265 267 271 278 283 286 288 289 290 292 294 297 300 305 310 311 314 316 317 320 323 324 324 324 324 325 323 323 322 316 306 299 299 300 303 306 308 310
244 246 248 250 252 254 256 258 262 265 265 264 266 268 263 260 260 259 257 255 254 257 260 259 260 265 269 275 282 286 288 288 288 289 291 294 297 301 307 310 311 313 315 317 321 324 324 324 323 324 325 324 323 321 314 307 303 302 302 306 310 314 315
242 243 245 247 248 249 252 256 258 258 259 261 264 267 264 260 259 256 253 251 250 251 255 257 261 266 271 278 284 287 287 286 286 289 291 294 298 303 307 310 311 314 316 318 322 324 324 324 323 323 325 324 323 320 312 305 304 304 307 313 317 319 318
240 241 243 245 246 248 252 255 256 256 258 261 264 268 266 261 258 254 250 249 249 251 254 257 261 267 274 279 283 284 284 284 286 288 291 294 298 303 307 309 311 314 316 319 322 324 324 324 323 323 325 324 324 320 311 304 304 308 313 319 320 321 321
239 240 243 245 246 250 254 257 257 258 261 263 265 269 269 263 258 254 250 251 253 254 256 259 264 271 276 279 280 280 280 282 285 288 291 295 299 303 307 309 311 314 317 320 322 323 323 323 322 323 325 325 324 320 311 306 310 314 319 322 322 323 324
239 240 244 246 247 250 253 256 258 260 263 266 267 269 269 263 258 254 253 254 256 257 259 263 268 272 275 277 277 277 279 281 285 288 292 295 299 303 306 309 311 314 317 320 322 322 322 322 322 324 326 326 325 321 313 312 317 319 321 324 324 324 325
237 238 241 244 246 248 251 254 256 258 262 266 268 269 268 262 256 254 254 256 258 260 262 265 268 271 274 275 275 276 278 281 285 289 292 295 300 304 306 309 311 314 318 321 321 320 321 321 323 325 326 327 326 322 316 316 319 320 322 326 326 325 327
237 236 238 241 244 248 252 256 258 259 262 266 268 268 265 260 255 254 254 256 259 262 264 267 269 271 273 273 274 276 278 282 286 289 292 294 299 303 306 309 312 315 320 321 320 320 322 323 325 326 327 328 328 324 319 317 319 321 323 326 327 328 329
237 236 238 240 243 248 253 256 258 260 262 265 266 266 263 258 256 254 254 256 259 263 266 268 271 272 272 272 274 275 278 283 286 289 292 295 298 303 306 309 313 318 321 321 321 322 324 325 326 327 327 329 329 325 319 317 319 322 324 326 329 331 332
235 237 241 243 245 249 251 253 256 259 260 261 263 264 262 259 257 256 256 257 260 263 267 271 272 273 272 272 274 276 280 285 288 289 292 295 298 303 307 311 316 320 321 322 323 324 325 325 326 327 327 329 329 324 317 317 320 322 325 328 331 333 334
236 237 240 245 249 248 247 250 255 257 257 257 259 261 262 261 260 260 259 259 261 263 267 271 272 272 272 274 276 280 284 287 288 289 292 295 299 304 310 314 319 321 322 324 324 325 325 326 327 328 328 329 330 323 316 317 320 322 326 330 334 336 337
236 236 239 245 249 250 249 251 255 255 254 254 255 258 261 262 263 265 265 264 264 265 268 271 271 271 274 276 280 284 287 287 287 288 291 295 300 307 312 316 320 322 323 324 324 324 325 326 327 329 328 329 330 325 315 316 321 323 328 333 337 339 340
237 238 242 249 251 251 251 252 254 254 252 251 253 255 259 262 263 267 269 268 267 268 268 270 270 271 274 278 282 286 286 286 287 288 291 296 302 309 314 317 320 322 323 324 325 325 326 327 328 329 328 329 331 326 315 316 323 325 329 335 339 341 342
239 242 248 255 256 253 251 252 254 253 249 249 251 253 256 260 262 265 268 268 268 269 270 270 270 271 274 278 282 284 284 284 286 288 291 298 305 311 315 318 320 322 323 325 325 324 326 328 329 329 329 331 333 329 317 316 324 327 329 335 340 343 344
243 248 253 257 257 255 253 252 252 251 249 249 250 251 254 260 262 263 266 267 268 271 272 272 271 272 275 279 280 281 281 283 285 287 292 301 309 313 315 318 321 322 323 324 323 324 327 329 330 331 331 333 335 332 322 317 325 328 330 335 341 345 347
245 250 253 255 256 254 253 251 250 250 251 252 253 253 254 258 261 263 266 268 269 272 274 273 273 274 277 278 278 278 280 282 283 286 294 304 310 313 316 318 320 321 323 323 323 326 330 331 331 332 334 335 338 335 326 319 327 331 332 337 343 348 350
247 250 253 256 256 255 253 252 251 251 251 252 255 257 257 260 262 264 267 270 273 276 277 275 274 276 277 277 276 277 280 280 281 287 298 306 311 313 316 318 320 321 323 323 324 328 332 332 332 334 336 338 340 339 330 321 327 333 335 340 345 350 354
249 252 254 256 257 256 255 254 253 253 254 254 256 258 260 262 263 265 269 272 276 280 279 275 275 276 276 276 276 276 276 277 281 291 301 307 311 314 316 318 320 321 322 323 325 329 333 334 334 336 338 339 342 342 335 323 325 334 337 342 347 352 356
254 255 255 254 253 253 254 255 256 256 257 256 255 257 260 262 264 267 271 274 279 282 280 276 276 277 275 275 275 273 272 276 283 295 304 308 311 314 316 318 320 321 322 323 327 331 334 334 335 338 339 339 343 346 342 328 323 334 338 342 348 353 358
258 257 254 252 250 250 250 252 255 257 259 259 257 257 258 261 264 268 272 276 279 281 279 276 275 275 274 274 272 269 270 277 288 298 306 310 311 313 316 319 320 321 322 325 328 332 334 335 336 339 341 340 343 348 348 338 323 329 336 342 351 357 359
269 262 258 255 255 254 253 254 255 257 258 260 259 258 258 261 265 267 270 273 277 278 277 276 274 274 273 269 264 264 269 279 292 302 308 310 310 312 316 319 320 321 323 326 329 331 333 335 337 339 342 342 343 347 351 348 333 322 331 341 354 0 0
289 278 272 269 267 264 260 259 258 257 257 258 258 257 256 259 263 265 266 270 275 276 274 273 272 271 267 259 256 262 271 283 297 305 308 309 310 313 317 319 319 321 324 327 329 331 332 335 337 339 341 343 344 346 351 353 346 326 320 332 346 359 3
303 296 286 278 272 266 261 258 257 255 255 255 253 252 254 257 260 262 265 269 271 271 270 270 268 263 255 248 251 262 275 289 301 306 306 308 311 315 318 319 318 321 324 327 329 331 332 334 337 338 339 342 345 346 349 353 353 342 319 318 333 348 1